Wind_Speed
36 36 36 35 35 36 32 31 29 31 31 31 32 31 30 27 24 28 18 20 21 20 16 17 14 11 9 7 7 7 7 8 8 8 8 7 7 6 4 2 2 1 3 3 3 4 5 5 7
35 35 37 40 40 38 34 32 29 30 32 32 33 33 33 37 31 27 26 26 23 23 22 18 17 14 10 4 4 7 9 9 8 8 7 7 8 7 6 4 3 2 2 1 1 3 3 5 8
38 37 38 41 40 39 33 37 34 32 33 34 36 35 37 37 36 34 30 28 30 26 22 22 21 16 15 12 9 6 8 10 11 10 8 7 8 8 7 5 4 3 2 1 2 3 2 4 7
41 41 42 42 39 33 38 38 36 37 38 37 38 41 38 39 40 40 39 35 32 32 31 26 25 23 18 18 15 12 10 10 12 11 10 10 9 8 7 6 6 5 4 3 1 1 2 6 6
40 41 46 44 39 37 36 41 40 41 39 40 43 43 43 39 39 41 43 42 37 33 33 32 31 29 25 23 22 19 15 13 14 14 12 11 11 10 9 9 8 7 5 5 3 3 3 5 6
39 39 42 40 39 40 41 47 46 45 43 43 43 44 47 42 40 39 42 43 42 40 37 34 32 32 31 29 27 24 21 16 15 16 15 14 12 12 12 11 10 8 7 6 6 6 6 7 7
36 37 38 37 34 33 36 44 47 51 51 47 47 44 47 44 43 42 41 43 45 44 43 41 38 35 33 32 30 28 25 22 18 16 16 16 16 15 14 14 13 11 9 9 9 8 9 9 10
35 36 36 33 32 31 37 43 45 42 45 49 44 48 53 48 45 44 44 43 43 44 46 45 42 39 38 35 34 31 26 26 25 23 21 18 18 17 17 16 16 15 12 12 12 11 11 13 14
39 40 37 35 37 34 40 42 39 40 41 43 46 44 45 47 48 48 46 46 46 46 45 45 46 44 44 40 38 38 34 31 30 29 27 23 21 22 21 19 19 18 17 16 16 16 16 17 18
40 40 38 38 38 37 38 39 40 39 39 41 43 45 44 42 42 43 43 44 47 48 50 49 48 48 48 46 42 40 39 38 35 33 34 33 29 26 26 26 24 22 21 21 20 20 20 21 22
40 38 39 38 37 34 33 36 40 38 39 37 38 43 46 39 39 40 42 43 45 46 47 51 52 51 51 50 49 47 46 43 41 38 36 36 36 33 32 32 30 28 27 26 26 26 25 25 26
42 40 38 37 36 34 35 35 38 38 38 35 36 40 43 43 43 43 45 47 49 50 51 52 53 54 54 52 52 54 54 51 50 47 43 39 40 40 39 38 37 36 33 33 33 33 32 31 31
42 40 39 37 36 34 36 36 37 36 37 35 37 37 41 43 44 44 45 47 51 53 56 57 58 58 60 61 60 57 56 56 56 58 57 50 47 45 45 44 44 43 42 41 40 40 40 38 37
40 39 36 35 37 36 38 38 36 36 37 36 37 38 40 43 46 48 49 50 52 56 58 61 61 63 63 64 63 61 58 57 58 61 61 59 57 54 53 51 51 50 49 48 47 47 46 45 44
37 36 35 35 38 39 39 36 36 35 36 35 35 36 40 43 44 48 51 54 56 58 60 62 64 69 66 65 61 60 59 60 59 60 59 63 69 58 60 58 58 55 54 54 52 52 51 50 49
34 35 36 38 40 40 37 35 32 33 34 35 35 33 36 41 44 48 52 56 57 55 52 52 51 56 55 58 60 64 61 56 54 59 57 59 55 62 63 68 66 63 59 58 59 57 56 56 55
33 33 35 40 40 42 36 33 32 31 33 32 31 31 37 41 45 45 50 49 45 48 45 51 56 56 63 60 59 63 66 70 64 60 54 61 65 60 60 69 70 68 63 59 61 61 64 61 60
33 34 35 37 41 39 35 28 31 34 30 28 28 30 34 34 34 35 38 43 46 54 59 53 51 58 66 65 62 67 67 68 65 60 59 56 54 53 57 56 69 66 67 62 64 65 61 64 65
34 35 38 38 42 38 32 29 28 33 26 26 26 21 17 20 23 24 25 21 24 34 40 48 55 66 65 55 56 67 72 72 69 62 60 59 41 48 63 46 47 57 44 63 65 68 60 70 68
34 36 35 36 38 38 32 27 29 29 26 26 23 22 14 17 17 15 17 18 18 22 24 30 36 48 50 53 59 37 26 28 41 44 44 45 45 43 44 36 48 45 59 49 61 66 71 70 62
37 35 34 31 37 37 31 24 26 27 28 26 22 23 17 17 16 16 16 19 21 23 26 26 33 42 36 38 33 29 27 32 31 24 27 35 35 37 35 35 45 39 42 45 45 46 50 50 54
33 34 28 28 32 29 30 22 27 30 31 28 26 24 23 19 15 18 19 21 21 23 25 26 31 33 35 28 25 23 31 35 35 33 35 38 38 38 41 50 53 49 48 50 51 52 52 55 56
31 30 31 32 30 30 32 27 19 29 32 28 25 25 23 21 19 21 23 23 24 25 26 27 30 34 32 29 31 31 34 39 40 38 40 41 43 46 49 50 52 54 52 54 55 54 54 57 59
28 29 30 30 31 35 28 27 19 23 26 25 25 26 26 25 25 24 25 27 27 31 30 28 30 32 33 28 29 32 34 37 39 40 43 44 46 47 53 51 54 55 55 58 59 58 58 60 63
30 27 22 24 28 27 22 31 22 33 29 24 27 30 32 32 31 31 30 29 30 31 33 33 35 35 34 34 35 36 37 40 43 44 46 46 50 50 55 56 57 58 61 62 61 61 62 64 66
29 28 20 20 18 19 32 33 24 36 27 25 23 23 27 31 34 34 34 35 35 35 36 39 35 33 34 35 35 35 37 39 42 43 46 49 50 51 54 55 59 60 61 64 64 64 63 64 65
21 26 24 27 27 26 17 21 30 32 26 25 25 26 25 25 26 28 33 36 37 35 33 31 30 33 34 35 36 38 40 41 42 44 44 46 49 52 57 60 63 62 63 66 67 67 65 63 62
27 21 26 27 24 25 20 23 24 23 22 24 25 26 27 28 25 24 24 26 28 28 27 29 32 33 36 39 41 41 40 39 39 42 46 48 50 54 59 63 65 67 66 64 62 59 61 63 63
25 28 30 30 26 28 24 20 25 28 27 26 28 26 25 25 27 27 27 28 29 29 29 33 36 37 39 41 42 43 43 44 46 46 44 45 43 44 46 48 49 50 54 58 61 62 61 61 61
25 22 22 24 23 24 26 25 30 30 31 24 25 29 28 26 27 29 30 31 29 29 31 34 38 39 39 39 41 41 41 42 41 42 39 40 44 47 50 50 48 49 50 53 56 58 61 63 64
Wind_Direction
234 231 231 234 236 237 231 228 225 228 232 234 239 237 237 240 232 230 233 241 245 247 229 211 205 216 215 221 231 244 246 238 229 225 219 221 225 228 217 209 180 154 112 107 86 49 35 26 27
236 236 231 233 234 235 237 237 229 230 234 239 239 238 236 235 240 234 238 241 239 236 240 238 222 223 208 217 243 244 237 244 244 239 232 230 235 229 224 212 215 200 180 143 63 29 25 17 21
237 237 238 233 231 232 238 235 236 234 237 238 243 241 238 241 243 246 240 241 243 239 232 236 245 241 228 222 246 291 270 244 238 238 236 234 242 237 225 224 218 223 239 260 346 8 5 5 10
242 239 239 237 234 230 233 237 238 238 238 237 240 245 241 239 242 250 254 247 242 246 247 244 248 240 241 238 241 258 280 287 264 249 242 239 237 244 239 229 229 222 229 232 260 307 349 345 347
241 241 241 238 236 236 231 238 233 234 237 239 237 243 244 237 241 244 251 256 256 248 249 256 255 249 242 243 242 250 258 278 284 273 259 255 250 243 242 240 228 231 240 247 249 263 283 312 320
239 239 242 242 241 238 238 237 239 237 236 239 243 241 249 249 246 245 246 253 260 262 263 258 255 258 259 250 249 250 253 260 272 269 262 262 255 250 244 236 228 227 236 246 257 261 274 291 296
239 236 237 238 238 235 233 236 236 234 238 238 241 245 246 248 250 252 251 250 252 259 263 264 266 261 259 261 252 256 261 262 264 264 263 265 259 253 250 241 229 227 235 243 250 260 273 280 278
240 239 238 237 237 232 231 234 236 235 237 240 242 239 243 245 247 248 252 252 253 254 256 261 261 259 261 258 256 254 258 265 264 268 262 258 262 257 249 241 240 234 234 243 247 253 262 267 266
240 242 242 241 239 236 237 239 238 240 238 239 246 250 249 248 248 251 254 257 259 260 261 257 258 257 259 260 255 255 253 256 260 260 260 258 252 253 251 244 240 240 242 242 246 248 250 257 262
241 241 241 241 241 238 238 240 243 241 241 242 246 253 252 251 249 252 254 256 257 259 260 262 257 256 258 258 255 251 248 250 249 251 257 258 255 251 251 250 245 248 248 247 246 247 247 250 256
241 240 239 240 239 240 237 237 240 239 240 239 240 247 255 253 253 253 253 254 257 258 256 258 262 263 258 252 250 251 251 248 248 244 247 253 257 256 253 248 242 242 244 243 246 249 250 252 253
240 239 239 240 239 236 235 236 237 239 241 242 241 245 250 252 252 251 253 254 255 256 258 257 257 259 261 262 259 256 253 252 249 246 247 242 248 252 252 248 245 243 240 241 241 242 244 248 252
239 240 240 241 243 239 237 238 239 245 244 246 249 247 251 255 256 257 256 257 257 256 256 257 256 256 254 257 258 258 258 258 254 251 248 245 245 245 246 249 248 246 249 247 244 242 242 241 244
240 240 241 241 243 243 242 242 244 247 248 248 249 253 253 254 257 259 260 259 257 256 254 257 255 254 260 259 258 259 260 260 262 256 253 253 250 250 248 244 248 246 246 248 250 249 247 246 245
240 240 241 242 244 245 247 249 249 251 252 253 253 256 256 256 255 258 259 258 258 257 257 257 255 251 247 259 264 264 264 265 260 257 262 262 252 250 252 248 246 246 246 247 248 250 252 252 250
241 237 237 240 243 246 246 251 252 254 255 258 257 258 257 258 256 254 252 254 258 263 270 270 260 271 265 262 261 262 259 254 260 253 255 260 251 260 253 258 245 242 240 246 250 250 252 252 252
236 234 234 241 239 244 244 247 256 256 258 260 263 260 254 248 250 249 252 250 248 250 254 260 261 258 255 258 256 252 253 256 259 255 257 260 253 251 253 250 249 245 242 243 250 250 250 252 252
231 233 235 235 240 242 244 245 250 253 256 261 262 254 247 242 240 244 252 255 255 255 248 249 255 250 248 247 253 255 254 246 247 250 250 253 252 253 241 247 241 244 245 245 247 252 253 255 249
231 230 233 239 245 243 242 239 243 252 256 254 253 237 233 238 241 241 244 268 274 268 260 258 256 255 263 237 240 242 238 239 242 245 248 253 249 249 259 249 229 234 249 247 245 249 256 256 257
231 231 234 236 243 246 243 235 239 248 248 249 241 233 235 246 249 247 245 264 278 267 267 263 269 267 265 265 263 259 258 256 234 243 245 249 243 244 250 255 247 253 239 244 247 248 253 255 255
227 229 231 233 241 246 243 240 244 242 242 239 238 235 233 244 251 253 259 270 268 265 264 272 265 265 279 285 293 273 265 270 273 264 263 258 262 264 251 268 249 265 271 271 267 261 263 268 266
236 236 232 232 239 246 245 236 248 241 238 237 238 235 236 242 255 261 262 263 275 276 272 270 273 273 279 279 265 256 244 257 256 255 262 261 264 262 260 260 269 266 266 266 265 267 268 268 271
237 238 238 230 238 232 246 243 225 242 243 236 242 243 240 245 252 256 261 263 270 270 265 270 270 277 276 264 262 256 257 260 258 256 252 249 254 257 255 257 264 267 268 267 268 269 271 274 276
236 242 243 240 236 238 235 243 229 251 241 239 239 242 247 249 253 253 254 258 266 262 264 266 270 271 277 271 263 257 254 254 256 256 254 256 258 258 261 261 262 265 267 269 270 273 275 274 274
232 234 237 239 233 234 234 233 214 233 243 241 243 244 245 248 253 256 256 256 256 256 263 266 272 265 265 265 262 261 261 261 258 258 260 261 260 258 259 260 261 264 265 268 271 272 273 274 274
237 234 217 226 231 236 245 243 234 241 244 241 243 245 246 246 247 249 250 251 251 255 259 262 261 258 258 260 259 258 262 266 266 265 265 262 261 263 265 265 265 266 271 272 273 274 273 272 270
229 229 215 222 218 208 240 256 251 246 238 242 244 243 244 243 242 247 247 248 250 252 255 258 260 259 261 263 265 265 265 265 265 266 268 268 267 266 266 268 268 270 273 272 273 273 270 268 270
226 225 230 232 231 239 238 241 260 259 243 237 245 252 248 245 245 242 239 240 245 252 260 265 266 264 263 265 266 269 268 267 267 267 268 267 265 266 268 266 267 267 271 272 270 269 270 272 272
233 229 232 237 243 250 244 250 239 263 269 260 254 251 247 250 247 246 245 248 252 259 268 270 271 272 272 272 272 271 271 274 277 279 280 280 275 272 271 270 267 265 264 264 266 267 269 270 270
220 227 234 234 238 246 247 238 250 250 261 260 252 245 252 252 250 248 245 250 255 264 273 278 276 276 278 278 276 276 277 278 280 281 280 282 282 282 282 280 277 274 273 274 276 277 275 273 272
Height
5879 5881 5884 5888 5891 5891 5893 5896 5896 5897 5897 5898 5899 5903 5905 5908 5909 5911 5912 5913 5916 5917 5918 5916 5915 5916 5917 5918 5919 5920 5921 5920 5919 5920 5920 5920 5920 5920 5920 5920 5921 5921 5921 5921 5921 5921 5921 5921 5920
5873 5876 5879 5881 5883 5886 5891 5892 5894 5893 5894 5894 5896 5898 5901 5900 5902 5907 5909 5910 5912 5913 5916 5917 5915 5916 5915 5917 5918 5918 5919 5919 5919 5919 5919 5919 5919 5919 5919 5920 5921 5921 5921 5921 5921 5921 5921 5920 5919
5868 5870 5872 5873 5877 5882 5889 5885 5887 5889 5889 5890 5890 5893 5895 5895 5898 5900 5904 5907 5908 5911 5912 5914 5915 5915 5915 5916 5917 5917 5918 5917 5917 5917 5918 5918 5918 5918 5918 5919 5920 5920 5921 5921 5921 5921 5920 5919 5918
5861 5863 5864 5867 5872 5881 5879 5881 5882 5882 5882 5884 5885 5886 5890 5892 5894 5895 5897 5902 5904 5907 5909 5911 5913 5913 5914 5914 5915 5916 5916 5917 5917 5915 5916 5916 5917 5917 5917 5918 5919 5918 5919 5919 5919 5919 5919 5918 5918
5852 5855 5856 5860 5869 5873 5875 5873 5874 5874 5875 5877 5879 5880 5881 5887 5890 5891 5892 5894 5898 5903 5905 5907 5909 5911 5911 5912 5912 5913 5913 5914 5915 5915 5915 5915 5916 5915 5915 5916 5916 5917 5918 5918 5917 5917 5916 5916 5916
5845 5848 5851 5855 5861 5865 5866 5864 5866 5867 5869 5871 5874 5877 5877 5881 5885 5887 5889 5891 5892 5895 5899 5903 5904 5906 5908 5909 5909 5909 5910 5910 5912 5913 5913 5914 5913 5913 5913 5913 5914 5915 5915 5915 5916 5916 5915 5915 5914
5840 5841 5844 5849 5854 5856 5858 5856 5857 5860 5861 5866 5867 5872 5872 5875 5878 5881 5884 5886 5889 5891 5893 5895 5898 5901 5903 5904 5905 5906 5907 5908 5908 5909 5910 5911 5911 5910 5911 5911 5911 5912 5913 5913 5913 5913 5914 5913 5912
5834 5835 5838 5843 5846 5850 5848 5848 5850 5855 5857 5858 5861 5864 5863 5870 5873 5875 5877 5879 5881 5883 5887 5889 5892 5894 5896 5899 5900 5900 5902 5903 5905 5907 5906 5906 5909 5909 5907 5907 5908 5908 5909 5909 5910 5910 5911 5910 5910
5826 5828 5833 5837 5838 5843 5841 5843 5847 5849 5852 5853 5852 5855 5859 5863 5867 5870 5872 5874 5875 5877 5879 5882 5885 5889 5890 5892 5894 5895 5896 5898 5899 5901 5903 5903 5902 5905 5905 5905 5905 5905 5905 5905 5905 5906 5906 5907 5907
5819 5822 5826 5827 5829 5833 5836 5839 5839 5843 5844 5846 5847 5847 5850 5856 5861 5864 5866 5867 5869 5871 5872 5873 5877 5880 5883 5886 5888 5889 5890 5891 5893 5895 5897 5898 5898 5899 5900 5901 5901 5902 5902 5902 5901 5901 5901 5900 5901
5812 5816 5817 5820 5822 5826 5829 5831 5831 5834 5836 5838 5842 5840 5841 5849 5853 5857 5858 5860 5861 5862 5864 5866 5868 5870 5874 5878 5880 5881 5883 5885 5887 5888 5889 5892 5893 5894 5894 5894 5894 5895 5895 5896 5897 5896 5896 5896 5895
5804 5807 5811 5813 5815 5819 5821 5823 5824 5826 5829 5832 5834 5835 5835 5839 5842 5847 5849 5850 5852 5853 5855 5857 5859 5861 5863 5866 5869 5872 5876 5878 5878 5879 5881 5882 5883 5885 5886 5886 5887 5888 5887 5887 5888 5887 5888 5889 5890
5797 5800 5803 5806 5808 5811 5812 5814 5816 5819 5822 5825 5825 5828 5829 5830 5833 5836 5838 5840 5842 5844 5845 5846 5848 5851 5852 5854 5857 5861 5864 5866 5869 5871 5871 5871 5873 5875 5876 5878 5879 5880 5881 5881 5880 5879 5878 5878 5879
5789 5792 5796 5798 5799 5802 5804 5806 5809 5811 5815 5818 5819 5820 5822 5823 5823 5825 5827 5829 5831 5833 5835 5836 5840 5841 5841 5843 5846 5850 5854 5855 5857 5859 5861 5862 5862 5865 5866 5866 5867 5869 5869 5871 5872 5872 5871 5871 5872
5781 5784 5786 5789 5790 5792 5796 5799 5801 5804 5806 5809 5812 5813 5813 5814 5815 5816 5817 5818 5819 5821 5823 5825 5828 5832 5837 5838 5840 5841 5844 5845 5846 5849 5851 5852 5852 5853 5854 5855 5856 5857 5858 5861 5861 5863 5863 5863 5864
5773 5776 5778 5779 5782 5784 5789 5791 5794 5797 5798 5800 5803 5805 5807 5805 5806 5807 5807 5808 5812 5817 5820 5820 5819 5823 5827 5831 5834 5834 5834 5833 5836 5838 5842 5840 5841 5842 5843 5843 5843 5844 5844 5848 5851 5853 5853 5854 5854
5765 5769 5771 5769 5773 5775 5782 5785 5786 5788 5789 5792 5794 5796 5798 5799 5798 5798 5800 5804 5808 5811 5812 5816 5812 5811 5812 5816 5818 5819 5821 5822 5825 5827 5829 5829 5833 5832 5831 5829 5829 5831 5833 5835 5839 5842 5842 5844 5845
5757 5761 5763 5764 5764 5768 5775 5780 5779 5779 5783 5785 5786 5786 5789 5790 5791 5791 5791 5797 5799 5801 5804 5802 5805 5806 5800 5800 5805 5808 5810 5810 5811 5817 5819 5819 5820 5822 5819 5813 5816 5819 5822 5823 5827 5830 5831 5833 5833
5749 5753 5756 5757 5756 5762 5768 5771 5772 5771 5776 5777 5778 5779 5781 5781 5781 5784 5785 5787 5789 5790 5792 5793 5792 5794 5796 5797 5796 5794 5793 5797 5801 5803 5807 5809 5810 5813 5811 5810 5811 5811 5814 5812 5814 5818 5822 5820 5821
5741 5746 5750 5751 5751 5755 5760 5764 5764 5766 5768 5770 5772 5774 5775 5775 5775 5777 5779 5781 5781 5782 5785 5787 5786 5786 5788 5787 5784 5783 5783 5785 5788 5791 5794 5798 5800 5804 5805 5806 5807 5802 5801 5803 5804 5805 5807 5808 5807
5732 5737 5742 5746 5745 5747 5752 5757 5758 5760 5761 5764 5765 5768 5769 5770 5770 5771 5773 5775 5776 5777 5779 5779 5779 5779 5777 5776 5775 5777 5779 5780 5780 5782 5785 5787 5789 5794 5799 5801 5780 5790 5790 5791 5791 5794 5795 5796 5796
5725 5730 5733 5737 5739 5743 5744 5753 5751 5752 5755 5757 5759 5761 5763 5764 5765 5766 5767 5769 5770 5770 5771 5772 5772 5771 5772 5771 5773 5773 5772 5775 5776 5776 5777 5779 5781 5784 5786 5783 5774 5776 5778 5781 5783 5782 5785 5786 5787
5720 5723 5726 5729 5732 5736 5737 5745 5752 5744 5746 5750 5751 5753 5755 5758 5759 5761 5762 5763 5765 5766 5766 5767 5767 5766 5766 5767 5768 5767 5769 5769 5768 5768 5769 5769 5770 5772 5772 5771 5769 5769 5768 5771 5772 5773 5773 5772 5774
5714 5716 5720 5723 5725 5727 5733 5736 5742 5741 5739 5742 5744 5746 5748 5750 5753 5754 5755 5756 5757 5759 5760 5759 5759 5759 5759 5759 5760 5760 5760 5760 5760 5759 5759 5760 5760 5761 5761 5759 5759 5758 5758 5759 5759 5762 5761 5763 5764
5707 5711 5715 5718 5719 5722 5727 5727 5734 5728 5731 5734 5736 5738 5740 5742 5744 5746 5748 5749 5750 5751 5752 5752 5752 5751 5751 5751 5751 5752 5752 5752 5752 5752 5751 5751 5752 5749 5750 5748 5747 5748 5748 5749 5751 5751 5751 5749 5750
5700 5704 5711 5713 5717 5720 5714 5717 5724 5719 5725 5727 5730 5731 5732 5734 5736 5738 5739 5741 5743 5744 5745 5745 5744 5743 5743 5743 5743 5743 5742 5741 5742 5741 5742 5742 5741 5739 5739 5738 5739 5738 5739 5738 5736 5736 5736 5735 5737
5694 5696 5704 5705 5707 5709 5711 5712 5712 5714 5718 5720 5722 5724 5726 5727 5728 5730 5731 5733 5735 5735 5736 5736 5735 5734 5733 5733 5733 5733 5733 5733 5732 5732 5731 5731 5730 5730 5729 5729 5729 5725 5723 5721 5721 5721 5721 5719 5721
5687 5692 5694 5697 5700 5701 5705 5708 5707 5707 5710 5712 5714 5715 5717 5719 5721 5722 5723 5724 5726 5726 5726 5726 5726 5725 5725 5724 5723 5722 5721 5721 5721 5721 5720 5718 5716 5715 5714 5712 5711 5710 5708 5707 5706 5706 5706 5705 5706
5680 5683 5687 5690 5693 5694 5698 5701 5699 5699 5701 5704 5705 5707 5708 5709 5711 5713 5714 5715 5716 5717 5716 5716 5716 5716 5715 5715 5714 5712 5711 5709 5708 5706 5703 5701 5699 5700 5699 5697 5696 5693 5693 5692 5690 5690 5687 5686 5687
5674 5678 5681 5682 5686 5687 5688 5693 5690 5693 5693 5695 5696 5698 5699 5702 5703 5704 5705 5706 5707 5707 5707 5706 5706 5705 5703 5703 5701 5699 5698 5696 5694 5693 5691 5689 5687 5686 5684 5681 5679 5678 5677 5675 5674 5671 5670 5670 5671